Location: Dollenbach
(49.1025°N, 7.3593°E)
Time: 22:30:53
(UTC+00:00)

Daily predictions for brighter satellites

Satellite Brightness Start Highest point End
(mag) Time Altitude Azimuth Time Altitude Azimuth Time Altitude Azimuth
STARLINK-1270 2.9 20:07:10 10° WNW 20:10:21 85° NNE 20:13:31 10° ESE
STARLINK-1189 2.9 20:09:32 10° WNW 20:12:44 88° NE 20:15:53 10° ESE
STARLINK-1219 4.3 20:09:34 10° WNW 20:13:39 55° NNE 20:17:44 10° E
NOSS 3-2 (A) 4.2 20:06:19 10° NW 20:13:47 80° SW 20:22:12 10° SSE
STARLINK-1188 2.9 20:10:44 10° WNW 20:13:55 89° N 20:17:06 10° ESE
ATLAS 2AS CENTAUR R/B 3.6 20:07:43 10° S 20:14:43 36° ESE 20:21:44 10° NE
SL-4 R/B 2.5 20:10:15 10° SW 20:14:48 51° SSE 20:19:30 10° ENE
STARLINK-1191 2.9 20:13:19 10° WNW 20:16:31 88° SSW 20:19:42 10° ESE
STARLINK-1221 2.9 20:14:35 10° WNW 20:17:47 86° SSW 20:20:57 10° ESE
STARLINK-1211 4.2 20:14:32 10° WNW 20:18:38 57° NNE 20:22:44 10° E
STARLINK-1222 2.9 20:15:44 10° WNW 20:18:56 85° SSW 20:22:06 10° ESE
STARLINK-1214 2.9 20:17:01 10° WNW 20:20:13 84° SSW 20:23:24 10° ESE
Landsat 7 4.0 20:16:39 10° SSE 20:21:21 66° ENE 20:26:06 10° N
Cosmos 1242 Rocket 4.1 20:18:51 10° SE 20:21:35 20° E 20:24:19 10° NE
STARLINK-1245 4.2 20:19:31 10° WNW 20:23:37 59° NNE 20:27:43 10° E
STARLINK-29 3.5 20:20:56 10° SW 20:23:57 37° SE 20:26:58 10° ENE
ERS-1 Rocket 3.5 20:19:34 10° SE 20:24:21 45° ENE 20:29:10 10° N
Cosmos 1437 Rocket 4.1 20:20:45 10° SW 20:24:22 42° WNW 20:28:05 10° N
Okean 1 Rocket 3.4 20:20:31 10° NNW 20:24:57 69° W 20:29:20 10° S
Cosmos 1455 Rocket 3.8 20:21:19 10° N 20:25:22 38° ENE 20:29:24 10° SE
STARLINK-1233 4.1 20:24:30 10° WNW 20:28:37 61° NNE 20:32:44 10° E
USA 238 DEB 4.1 20:21:42 10° NW 20:28:50 68° SW 20:36:13 10° SSE
USA 238 4.1 20:21:48 10° NW 20:28:56 68° SW 20:36:20 10° SSE
Cosmos 2082 Rocket 4.5 20:25:54 10° NW 20:29:52 20° W 20:33:47 10° SW
STARLINK-1209 3.4 20:27:13 10° WNW 20:30:41 59° SSW 20:33:57 11° SE
Cosmos 2297 4.5 20:25:49 10° SW 20:31:26 59° WNW 20:37:08 10° NNE
Cosmos 968 Rocket 3.8 20:28:01 10° NNW 20:33:06 55° ENE 20:37:57 11° SE
STARLINK-1204 4.1 20:29:29 10° WNW 20:33:35 63° NNE 20:37:43 10° E
IGS 5A 3.5 20:30:07 10° SSE 20:34:16 85° ENE 20:38:28 10° NNW
Cosmos 2026 Rocket 4.4 20:28:27 10° SSE 20:34:26 47° E 20:40:30 10° NNE
ATLAS CENTAUR R/B 2.4 20:31:02 10° S 20:34:41 26° ESE 20:38:10 10° ENE
MetOp-B 4.4 20:29:38 10° S 20:34:58 70° WSW 20:40:20 10° NNW
Okean 2 3.6 20:31:52 10° S 20:35:55 55° E 20:40:01 10° NNE
Cosmos 2369 Rocket 2.3 20:31:54 10° S 20:37:28 61° ESE 20:43:02 10° NE
CARTOSAT-1 3.9 20:34:06 10° SE 20:38:12 51° ENE 20:42:24 10° N
STARLINK-1238 4.0 20:34:28 10° WNW 20:38:36 65° NNE 20:42:44 10° E
Cosmos 1867 3.8 20:33:31 10° NW 20:38:59 68° NE 20:44:11 11° SE
STARLINK-1320 4.4 20:37:41 10° S 20:39:48 17° SE 20:41:56 10° E
STARLINK-1322 4.4 20:38:01 10° S 20:40:09 17° SE 20:42:18 10° E
STARLINK-1324 4.4 20:38:19 10° S 20:40:28 17° SE 20:42:37 10° E
STARLINK-1294 4.4 20:38:39 10° S 20:40:47 17° SE 20:42:55 10° E
STARLINK-1187 3.3 20:37:37 10° WNW 20:40:52 56° SSW 20:43:39 13° SE
STARLINK-1261 4.4 20:38:59 10° S 20:41:09 17° SE 20:43:19 10° E
STARLINK-1325 4.4 20:39:19 10° S 20:41:30 18° SE 20:43:40 10° E
STARLINK-1333 4.4 20:39:41 10° S 20:41:52 18° SE 20:44:04 10° E
Cosmos 1766 3.4 20:38:02 10° NNW 20:42:03 78° W 20:46:02 10° S
STARLINK-1334 4.4 20:39:57 10° S 20:42:09 18° SE 20:44:21 10° E
STARLINK-1326 4.4 20:40:16 10° S 20:42:28 18° SE 20:44:41 10° E
STARLINK-1323 4.3 20:40:38 10° S 20:42:51 18° SE 20:45:04 10° E
STARLINK-1349 4.3 20:40:55 10° S 20:43:08 18° SE 20:45:22 10° E
STARLINK-1336 4.3 20:41:15 10° S 20:43:28 18° SE 20:45:42 10° E
STARLINK-1201 3.9 20:39:28 10° WNW 20:43:36 68° NNE 20:47:44 10° ESE
STARLINK-1331 4.3 20:41:36 10° S 20:43:50 18° SE 20:46:05 10° E
STARLINK-1344 4.3 20:41:54 10° S 20:44:08 18° SE 20:46:24 10° E
STARLINK-1343 4.3 20:42:16 10° S 20:44:31 18° SE 20:46:47 10° E
STARLINK-1234 3.6 20:41:16 10° WNW 20:44:44 50° SSW 20:47:37 14° SE
STARLINK-1346 4.3 20:42:32 10° S 20:44:49 19° SE 20:47:06 10° E
STARLINK-1328 4.3 20:42:57 10° S 20:45:14 19° SE 20:47:31 10° E
STARLINK-1354 4.3 20:43:15 10° S 20:45:31 19° SE 20:47:48 10° E
STARLINK-1347 4.3 20:43:31 10° S 20:45:49 19° SE 20:48:07 10° E
STARLINK-1357 4.3 20:43:56 10° S 20:46:14 19° SE 20:48:33 10° E
STARLINK-1335 4.3 20:44:13 10° S 20:46:31 19° SE 20:48:50 10° E
STARLINK-1327 4.3 20:44:33 10° S 20:46:52 19° SE 20:49:11 10° E
STARLINK-1340 4.2 20:44:51 10° S 20:47:10 19° SE 20:49:30 10° E
STARLINK-1356 4.2 20:45:13 10° S 20:47:33 19° SE 20:49:53 10° E
STARLINK-1345 4.2 20:45:31 10° S 20:47:52 20° SE 20:50:12 10° E
STARLINK-1355 4.2 20:45:51 10° S 20:48:12 20° SE 20:50:34 10° E
STARLINK-1321 4.2 20:46:11 10° S 20:48:33 20° SE 20:50:54 10° E
STARLINK-1206 3.9 20:44:25 10° WNW 20:48:34 70° NNE 20:52:42 10° ESE
STARLINK-1358 4.2 20:46:34 10° S 20:48:55 20° SE 20:51:18 10° E
STARLINK-1332 4.2 20:46:50 10° S 20:49:12 20° SE 20:51:35 10° E
STARLINK-1348 4.2 20:47:10 10° S 20:49:33 20° SE 20:51:56 10° E
STARLINK-1330 4.2 20:47:29 10° S 20:49:53 20° SE 20:52:16 10° E
STARLINK-1228 3.8 20:46:31 10° WNW 20:50:03 47° SW 20:52:50 15° SE
STARLINK-1363 4.2 20:47:48 10° S 20:50:12 20° SE 20:52:36 10° E
STARLINK-1337 4.2 20:48:10 10° S 20:50:34 21° SE 20:53:00 10° E
Nadezhda 4 Rocket 4.3 20:44:29 10° SSW 20:50:35 69° WNW 20:56:43 10° N
STARLINK-1342 4.2 20:48:29 10° S 20:50:54 21° SE 20:53:19 10° E
STARLINK-1364 4.2 20:48:49 10° S 20:51:14 21° SE 20:53:40 10° E
STARLINK-1376 4.1 20:49:08 10° S 20:51:34 21° SE 20:54:00 10° E
STARLINK-1360 4.1 20:49:28 10° S 20:51:54 21° SE 20:54:21 10° E
STARLINK-1361 4.1 20:49:49 10° S 20:52:15 21° SE 20:54:41 10° E
STARLINK-1367 4.1 20:50:04 10° SSW 20:52:31 21° SE 20:54:59 10° E
STARLINK-1366 4.1 20:50:26 10° SSW 20:52:53 21° SE 20:55:21 10° E
STARLINK-1205 3.8 20:49:24 10° WNW 20:53:33 73° NNE 20:57:41 10° ESE
Resurs 01 Rocket 3.5 20:50:38 10° SSW 20:54:25 27° W 20:58:12 10° NW
USA 245 3.5 20:52:44 10° S 20:55:06 34° WSW 20:57:17 10° NNW
STARLINK-1218 3.7 20:54:23 10° WNW 20:58:33 77° NNE 21:02:42 10° ESE
STARLINK-52 2.9 20:56:03 10° SW 20:59:13 61° SSE 21:02:25 10° ENE
ATLAS CENTAUR R/B 3.5 21:01:21 10° N 21:01:54 11° NNE 21:02:27 10° NNE
SPOT 5 3.1 20:57:53 13° SSE 21:02:42 82° ENE 21:08:06 10° NNW
STARLINK-1341 4.5 20:59:37 10° SSW 21:02:51 25° SE 21:06:06 10° E
Cosmos 1544 Rocket 3.6 20:58:38 10° N 21:02:59 65° ENE 21:06:25 16° SSE
Spot 2 Rocket 4.3 20:58:20 10° S 21:03:11 48° W 21:08:06 10° NNW
CENTAUR R/B 3.3 20:55:31 10° NW 21:03:30 73° SW 21:11:10 14° SSE
STARLINK-1254 3.7 20:59:22 10° WNW 21:03:33 80° NNE 21:07:29 11° ESE
Cosmos 1378 4.3 21:00:22 10° SSW 21:03:55 42° WNW 21:07:28 10° N
BREEZE-M DEB 2.8 21:03:03 10° SW 21:05:34 58° SSE 21:11:51 10° ENE
Terra 2.0 21:02:43 15° SSE 21:06:37 66° ENE 21:11:20 10° N
STARLINK-1374 4.4 21:04:18 10° SSW 21:07:40 27° SE 21:11:05 10° E
NOSS 7 (A) 4.5 21:05:11 10° SW 21:08:25 81° SE 21:11:20 10° NE
STARLINK-1231 3.6 21:04:21 10° WNW 21:08:31 84° NNE 21:12:16 13° ESE
USA 215 4.4 21:02:34 10° ENE 21:08:44 45° N 21:14:52 10° WNW
STARLINK-1246 4.5 21:06:33 10° WNW 21:10:36 50° N 21:14:40 10° E
STARLINK-1339 4.3 21:08:14 10° SSW 21:11:41 29° SE 21:15:08 10° E
ATLAS 3B R/B 2.8 21:05:14 10° NW 21:12:02 75° NE 21:18:06 14° SE
Cosmos 1726 3.4 21:09:14 10° N 21:12:32 29° ENE 21:14:42 17° ESE
SAR-Lupe-2 4.4 21:09:42 10° N 21:13:13 50° WNW 21:16:41 10° SSW
STARLINK-1232 3.6 21:09:21 10° WNW 21:13:31 88° NNE 21:17:04 14° ESE
STARLINK-1224 4.4 21:11:32 10° WNW 21:15:35 51° N 21:19:39 10° E
STARLINK-1377 4.2 21:12:25 10° SSW 21:15:56 31° SE 21:19:26 10° ENE
Cosmos 1503 Rocket 4.1 21:12:09 10° NNW 21:17:31 90° ENE 21:21:37 18° SSE
STARLINK-1208 3.6 21:14:20 10° WNW 21:18:29 88° SSW 21:21:50 15° ESE
STARLINK-1444 2.7 21:17:12 10° W 21:19:16 53° NNW 21:21:23 10° ENE
STARLINK-1452 2.7 21:17:51 10° W 21:19:54 53° NNW 21:22:00 10° ENE
APEX 4.2 21:13:44 10° SSW 21:19:57 83° WNW 21:24:58 10° NNE
Cosmos 1470 2.7 21:16:34 10° N 21:20:27 88° E 21:23:07 19° S
STARLINK-1353 4.1 21:16:55 10° SSW 21:20:31 33° SE 21:24:08 10° ENE
STARLINK-1225 4.4 21:16:32 10° WNW 21:20:36 52° N 21:24:40 10° E
STARLINK-1392 2.7 21:18:47 10° W 21:20:47 51° NNW 21:22:49 10° ENE
STARLINK-1399 2.7 21:18:48 10° W 21:20:49 51° NNW 21:22:51 10° ENE
STARLINK-1393 2.7 21:18:50 10° W 21:20:50 51° NNW 21:22:53 10° ENE
STARLINK-1394 2.7 21:18:51 10° W 21:20:51 51° NNW 21:22:54 10° ENE
STARLINK-1397 2.7 21:18:54 10° W 21:20:54 51° NNW 21:22:57 10° ENE
STARLINK-1395 2.7 21:18:56 10° W 21:20:55 51° NNW 21:22:56 10° ENE
STARLINK-1396 2.7 21:18:55 10° W 21:20:55 51° NNW 21:22:58 10° ENE
STARLINK-1414 2.7 21:18:56 10° W 21:20:55 51° NNW 21:22:57 10° ENE
STARLINK-1408 2.7 21:18:59 10° W 21:20:58 51° NNW 21:23:00 10° ENE
STARLINK-1404 2.7 21:18:59 10° W 21:20:59 51° NNW 21:23:02 10° ENE
STARLINK-1416 2.7 21:19:00 10° W 21:21:00 51° NNW 21:23:02 10° ENE
STARLINK-1415 2.7 21:19:00 10° W 21:21:01 51° NNW 21:23:04 10° ENE
STARLINK-1450 2.7 21:19:01 10° W 21:21:02 51° NNW 21:23:06 10° ENE
STARLINK-1406 2.7 21:19:05 10° W 21:21:04 50° NNW 21:23:06 10° ENE
STARLINK-1401 2.7 21:19:03 10° W 21:21:04 51° NNW 21:23:08 10° ENE
STARLINK-1417 2.7 21:19:06 10° W 21:21:07 51° NNW 21:23:11 10° ENE
STARLINK-1402 2.7 21:19:07 10° W 21:21:08 51° NNW 21:23:12 10° ENE
STARLINK-1413 2.7 21:19:07 10° W 21:21:09 51° NNW 21:23:12 10° ENE
STARLINK-1419 2.7 21:19:08 10° W 21:21:09 51° NNW 21:23:12 10° ENE
STARLINK-1422 2.7 21:19:13 10° W 21:21:14 51° NNW 21:23:18 10° ENE
STARLINK-1453 2.7 21:19:13 10° W 21:21:15 51° NNW 21:23:19 10° ENE
STARLINK-1398 2.7 21:19:14 10° W 21:21:16 51° NNW 21:23:21 10° ENE
STARLINK-1440 2.7 21:19:17 10° W 21:21:18 51° NNW 21:23:22 10° ENE
STARLINK-1420 2.7 21:19:16 10° W 21:21:18 51° NNW 21:23:22 10° ENE
STARLINK-1436 (VISORSAT) 2.7 21:19:16 10° W 21:21:18 51° NNW 21:23:24 10° ENE
STARLINK-1460 2.7 21:19:19 10° W 21:21:20 51° NNW 21:23:24 10° ENE
STARLINK-1410 2.7 21:19:24 10° W 21:21:25 51° NNW 21:23:29 10° ENE
STARLINK-1423 2.7 21:19:25 10° W 21:21:25 50° NNW 21:23:28 10° ENE
STARLINK-1454 2.7 21:19:25 10° W 21:21:26 51° NNW 21:23:30 10° ENE
STARLINK-1421 2.7 21:19:25 10° W 21:21:26 50° NNW 21:23:29 10° ENE
STARLINK-1400 2.7 21:19:24 10° W 21:21:26 51° NNW 21:23:29 10° ENE
STARLINK-1458 2.7 21:19:27 10° W 21:21:28 50° NNW 21:23:31 10° ENE
STARLINK-1445 2.7 21:19:29 10° W 21:21:31 51° NNW 21:23:35 10° ENE
STARLINK-1446 2.7 21:19:31 10° W 21:21:33 51° NNW 21:23:37 10° ENE
STARLINK-1407 2.7 21:19:32 10° W 21:21:33 51° NNW 21:23:37 10° ENE
STARLINK-1405 2.7 21:19:35 10° W 21:21:35 50° NNW 21:23:36 10° ENE
STARLINK-1370 2.7 21:19:34 10° W 21:21:36 51° NNW 21:23:40 10° ENE
STARLINK-1456 2.7 21:19:35 10° W 21:21:36 50° NNW 21:23:39 10° ENE
STARLINK-1457 2.7 21:19:35 10° W 21:21:36 50° NNW 21:23:40 10° ENE
STARLINK-1451 2.7 21:19:36 10° W 21:21:36 50° NNW 21:23:40 10° ENE
STARLINK-1409 2.7 21:19:36 10° W 21:21:37 50° NNW 21:23:41 10° ENE
STARLINK-1439 2.7 21:19:39 10° W 21:21:38 50° NNW 21:23:39 10° ENE
STARLINK-1437 2.7 21:19:37 10° W 21:21:38 50° NNW 21:23:41 10° ENE
STARLINK-1447 2.7 21:19:36 10° W 21:21:38 51° NNW 21:23:42 10° ENE
STARLINK-1455 2.7 21:19:36 10° W 21:21:38 51° NNW 21:23:42 10° ENE
STARLINK-1441 2.7 21:19:38 10° W 21:21:40 51° NNW 21:23:44 10° ENE
STARLINK-1443 2.7 21:19:40 10° W 21:21:42 51° NNW 21:23:47 10° ENE
STARLINK-1351 2.7 21:19:43 10° W 21:21:45 50° NNW 21:23:48 10° ENE
STARLINK-1418 2.7 21:19:43 10° W 21:21:45 50° NNW 21:23:48 10° ENE
STARLINK-1442 2.7 21:19:44 10° W 21:21:45 50° NNW 21:23:49 10° ENE
STARLINK-1403 2.7 21:19:43 10° W 21:21:45 51° NNW 21:23:49 10° ENE
STARLINK-1434 2.7 21:19:43 10° W 21:21:45 51° NNW 21:23:50 10° ENE
STARLINK-1448 2.7 21:19:46 10° W 21:21:46 50° NNW 21:23:51 10° ENE
STARLINK-1433 2.7 21:19:46 10° W 21:21:48 50° NNW 21:23:52 10° ENE
STARLINK-1449 2.7 21:19:48 10° W 21:21:49 50° NNW 21:23:54 10° ENE
STARLINK-1438 2.7 21:19:52 10° W 21:21:52 50° NNW 21:23:55 10° ENE
STARLINK-1412 2.7 21:19:58 10° W 21:21:59 50° NNW 21:24:03 10° ENE
STARLINK-1411 2.7 21:19:58 10° W 21:22:00 50° NNW 21:24:03 10° ENE
Meteor 2-10 4.2 21:17:15 10° N 21:22:13 55° ENE 21:25:45 19° SSE
OE (NEXTSAT) 4.5 21:19:06 10° WSW 21:22:31 51° S 21:25:23 14° ESE
BREEZE-M DEB (TANK) 3.7 21:06:47 10° WSW 21:22:47 80° SSE 21:26:47 10° E
STARLINK-1271 3.6 21:19:18 10° WNW 21:23:28 84° SSW 21:26:37 17° ESE
STARLINK-1375 4.1 21:20:54 10° SSW 21:24:32 35° SE 21:28:10 10° ENE
BREEZE-M DEB (TANK) 3.9 21:18:20 10° SSW 21:25:28 26° SSE 21:28:42 10° E
STARLINK-1230 4.4 21:21:30 10° WNW 21:25:35 53° N 21:29:39 10° E
FALCON 9 DEB 3.0 21:22:23 10° SW 21:25:46 66° SSE 21:29:12 10° ENE
SeaSat 1 4.3 21:24:23 10° ENE 21:26:46 13° ESE 21:27:49 13° ESE
STARLINK-60 3.7 21:24:14 10° W 21:27:21 53° NNW 21:30:29 10° ENE
BREEZE-M DEB (TANK) 2.9 21:23:32 10° W 21:27:40 88° NNE 21:31:22 10° E
STARLINK-1154 3.5 21:24:16 10° WNW 21:28:25 79° SSW 21:31:22 19° ESE
STARLINK-1350 4.0 21:25:09 10° SSW 21:28:50 37° SE 21:32:31 10° ENE
Cosmos 1174 3.5 21:26:27 14° SSW 21:29:03 57° ESE 21:32:50 10° NE
Cosmos 1340 Rocket 3.4 21:25:51 10° N 21:29:49 47° ENE 21:32:10 22° SE
STARLINK-1243 4.3 21:26:31 10° WNW 21:30:36 55° NNE 21:34:41 10° E
COSMOS 2455 2.9 21:24:48 10° SSW 21:30:39 58° ESE 21:36:35 10° NE
Cosmos 1842 4.2 21:29:19 10° SSW 21:33:03 45° WNW 21:36:49 10° N
STARLINK-1197 3.6 21:29:15 10° WNW 21:33:24 75° SSW 21:36:10 20° SE
STARLINK-1352 3.9 21:29:44 10° SSW 21:33:30 40° SE 21:37:15 10° ENE
Cosmos 1025 Rocket 3.0 21:30:38 19° S 21:33:39 68° E 21:37:58 10° NNE
COSMOS 2487 2.3 21:30:59 10° NNW 21:34:28 84° ENE 21:36:14 27° SSE
STARLINK-1236 4.2 21:31:29 10° WNW 21:35:35 56° NNE 21:39:41 10° E
Cosmos 1975 Rocket 4.2 21:32:17 10° SW 21:36:28 41° WNW 21:40:39 10° N
STARLINK-1212 4.4 21:34:23 10° W 21:36:51 21° SW 21:37:31 20° SSW
NOSS 3-4 (A) 3.4 21:31:06 10° SW 21:37:04 83° SE 21:43:28 10° NE
NOSS 3-4 (C) 3.4 21:31:12 10° SW 21:37:10 83° SE 21:43:35 10° NE
STARLINK-1105 4.5 21:35:03 10° W 21:37:30 21° SW 21:38:09 20° SSW
STARLINK-1368 3.8 21:33:47 10° SW 21:37:33 42° SE 21:41:20 10° ENE
STARLINK-1198 3.6 21:34:14 10° WNW 21:38:22 70° SSW 21:40:56 22° SE
STARLINK-1247 4.5 21:36:11 10° W 21:38:38 21° SW 21:39:16 20° SSW
STARLINK-1227 4.5 21:36:48 10° W 21:39:14 21° SW 21:39:50 20° SSW
Cosmos 1354 Rocket 4.2 21:34:40 10° NNW 21:39:58 68° WSW 21:43:37 20° S
Aureole 3 3.9 21:38:32 10° N 21:41:16 29° ENE 21:42:17 23° ESE
STARLINK-1369 3.7 21:37:57 10° SW 21:41:45 45° SE 21:45:32 10° ENE
MTI 3.6 21:38:51 10° NNE 21:42:00 83° ESE 21:43:39 26° S
STARLINK-1199 3.6 21:39:13 10° WNW 21:43:21 66° SSW 21:45:43 24° SE
ATLAS 5 CENTAUR R/B 2.0 21:38:56 10° SSW 21:44:03 41° SE 21:46:23 10° ENE
RESURS DK-1 3.0 21:42:39 25° SSE 21:44:20 36° ESE 21:48:08 10° NE
EXPRESS MD2 4.1 21:40:34 10° W 21:44:20 81° N 21:52:09 10° E
ERBS 4.4 21:42:04 10° NW 21:44:56 26° NNE 21:47:48 10° ENE
Cosmos 1953 2.3 21:41:14 10° N 21:45:15 74° E 21:47:21 27° SSE
STARLINK-1269 4.1 21:41:28 10° WNW 21:45:34 60° NNE 21:49:41 10° E
Cosmos 2297 Rocket 3.7 21:41:04 10° NNW 21:46:01 30° NE 21:50:56 10° ESE
Cosmos 1943 Rocket 3.8 21:40:55 10° WSW 21:46:03 36° NW 21:51:15 10° NNE
Cosmos 1271 Rocket 3.0 21:42:55 15° SSW 21:46:07 66° WNW 21:50:05 10° N
STARLINK-1372 3.6 21:42:19 10° SW 21:46:09 48° SE 21:49:59 10° ENE
Cosmos 1992 Rocket 4.2 21:43:04 10° SSW 21:48:16 74° WNW 21:53:31 10° NNE
STARLINK-1210 3.7 21:44:12 10° WNW 21:48:19 62° SSW 21:50:30 26° SE
Lacrosse 4 Rocket 4.0 21:46:59 10° N 21:49:49 17° NE 21:52:36 10° ENE
Cosmos 2219 4.3 21:44:46 10° NNW 21:49:59 36° NE 21:54:40 12° ESE
STARLINK-1200 4.1 21:46:26 10° WNW 21:50:33 62° NNE 21:54:40 10° E
STARLINK-1378 3.6 21:46:53 10° SW 21:50:45 52° SSE 21:54:38 10° ENE
Cosmos 2228 3.9 21:47:59 10° N 21:51:55 36° ENE 21:54:03 22° SE
Spot 4 4.4 21:50:03 21° SE 21:53:00 49° ENE 21:57:41 10° N
STARLINK-1219 3.7 21:49:14 10° WNW 21:53:18 58° SSW 21:55:19 27° SE
Cosmos 921 Rocket 4.4 21:52:46 20° ESE 21:53:57 22° E 21:57:20 10° NE
SL-4 R/B 2.7 21:49:44 10° W 21:54:31 72° NNW 21:59:23 10° ENE
STARLINK-1379 3.5 21:51:06 10° SW 21:54:59 55° SSE 21:58:54 10° ENE
STARLINK-1192 4.0 21:51:27 10° WNW 21:55:34 64° NNE 21:59:41 10° E
Cosmos 1242 Rocket 4.1 21:52:53 10° SW 21:56:15 33° WNW 21:59:37 10° N
Cosmos 1707 3.0 21:55:20 19° SSW 21:58:00 66° W 22:01:53 10° N
STARLINK-1211 3.8 21:54:13 10° WNW 21:58:16 54° SSW 22:00:05 29° SSE
STARLINK-1329 3.5 21:55:15 10° SW 21:59:13 59° SSE 22:03:12 10° ENE
STARLINK-29 3.7 21:56:51 10° W 22:00:02 55° NNW 22:03:12 10° ENE
STARLINK-1244 3.9 21:56:24 10° WNW 22:00:32 67° NNE 22:04:30 11° E
STARLINK-1362 3.4 21:59:15 10° SW 22:03:11 62° SSE 22:07:09 10° ENE
STARLINK-1245 3.9 21:59:11 10° WNW 22:03:12 50° SW 22:04:51 31° SSE
EO 1 Del DPAF 3.6 21:59:57 10° NNE 22:03:37 46° E 22:04:56 32° SSE
SL-4 R/B 3.1 22:03:43 13° ENE 22:03:48 13° ENE 22:04:58 10° NNE
Cosmos 1656 Rocket 4.2 21:59:23 10° SW 22:04:56 61° WNW 22:10:27 10° NNE
ATLAS 2AS CENTAUR R/B 3.3 21:57:18 10° SW 22:05:18 74° NW 22:13:14 10° NE
STARLINK-1138 3.9 22:01:23 10° WNW 22:05:32 69° NNE 22:09:16 12° ESE
Meteor 2-15 4.5 21:59:26 10° N 22:05:36 77° E 22:09:27 24° SSE
Timation 2 Rocket 3.9 21:59:28 10° NNW 22:05:49 82° ENE 22:09:47 23° SE
STARLINK-1373 3.4 22:03:56 10° SW 22:07:54 66° SSE 22:11:52 10° ENE
STARLINK-1233 4.0 22:04:11 10° WNW 22:08:11 47° SW 22:09:38 32° SSE
STARLINK-1143 3.8 22:06:22 10° WNW 22:10:31 72° NNE 22:14:04 14° ESE
Cosmos 1726 Rocket 4.1 22:08:00 10° N 22:12:12 47° ENE 22:14:12 27° SE
STARLINK-1390 3.4 22:08:28 10° SW 22:12:27 70° SSE 22:16:27 10° ENE
Meteor 1-16 Rocket 4.1 22:07:04 10° NNW 22:12:32 79° W 22:15:41 25° S
STARLINK-1204 4.1 22:09:10 10° WNW 22:13:07 44° SW 22:14:24 33° S
ATLAS CENTAUR R/B 2.4 22:09:14 10° WSW 22:13:26 47° NW 22:17:22 10° NNE
BREEZE-M R/B 4.4 22:04:31 10° SW 22:14:11 46° SSE 22:18:50 10° E
STARLINK-1320 2.7 22:12:08 10° WSW 22:15:15 89° S 22:18:24 10° ENE
STARLINK-1241 3.7 22:11:22 10° WNW 22:15:31 76° NNE 22:18:51 15° ESE
STARLINK-1322 2.7 22:12:29 10° WSW 22:15:36 90° SW 22:18:45 10° ENE
STARLINK-1324 2.7 22:12:48 10° WSW 22:15:55 90° N 22:19:03 10° ENE
STARLINK-1294 2.7 22:13:07 10° WSW 22:16:14 89° NNW 22:19:22 10° ENE
STARLINK-1261 2.8 22:13:29 10° WSW 22:16:37 89° NNW 22:19:45 10° ENE
STARLINK-1325 2.8 22:13:50 10° WSW 22:16:57 88° NW 22:20:06 10° ENE
Cosmos 2098 Rocket 4.5 22:12:13 23° S 22:17:09 66° E 22:24:24 10° NNE
STARLINK-1333 2.8 22:14:13 10° WSW 22:17:20 88° NW 22:20:28 10° ENE
STARLINK-1334 2.8 22:14:30 10° WSW 22:17:37 88° NNW 22:20:45 10° ENE
S3M 4.4 22:11:46 10° NNW 22:17:50 59° W 22:22:10 20° SSW
STARLINK-1326 2.8 22:14:49 10° WSW 22:17:56 87° NNW 22:21:04 10° ENE
STARLINK-1238 4.2 22:14:11 10° WNW 22:18:05 41° SW 22:19:12 33° S
STARLINK-1323 2.8 22:15:12 10° WSW 22:18:19 87° NNW 22:21:27 10° ENE
STARLINK-1365 3.4 22:14:32 10° WSW 22:18:36 77° SSE 22:22:41 10° ENE
STARLINK-1349 2.8 22:15:30 10° WSW 22:18:37 87° NNW 22:21:45 10° ENE
STARLINK-1336 2.8 22:15:49 10° WSW 22:18:57 86° NNW 22:22:05 10° ENE
STARLINK-1331 2.8 22:16:12 10° WSW 22:19:20 86° NNW 22:22:27 10° ENE
SJ 16-02 3.1 22:15:47 10° N 22:19:29 25° NE 22:22:33 13° ESE
STARLINK-1344 2.8 22:16:31 10° WSW 22:19:38 85° NNW 22:22:46 10° ENE
STARLINK-1343 2.8 22:16:52 10° WSW 22:20:00 85° NNW 22:23:09 10° ENE
STARLINK-1346 2.8 22:17:10 10° WSW 22:20:18 85° NNW 22:23:28 10° ENE
STARLINK-1239 3.7 22:16:21 10° WNW 22:20:31 79° NNE 22:23:39 17° ESE
STARLINK-1328 2.8 22:17:36 10° WSW 22:20:43 84° NNW 22:23:52 10° ENE
STARLINK-1354 2.8 22:17:54 10° WSW 22:21:01 84° NNW 22:24:09 10° ENE
STARLINK-1347 2.8 22:18:11 10° WSW 22:21:18 84° NNW 22:24:26 10° ENE
STARLINK-1357 2.8 22:18:36 10° WSW 22:21:43 83° NNW 22:24:52 10° ENE
Cosmos 2369 Rocket 4.1 22:16:59 10° WSW 22:21:54 29° NW 22:26:48 10° NNE
STARLINK-1335 2.8 22:18:54 10° WSW 22:22:01 83° NNW 22:25:09 10° ENE
STARLINK-1327 2.8 22:19:15 10° WSW 22:22:22 83° NNW 22:25:30 10° ENE
STARLINK-1340 2.8 22:19:33 10° WSW 22:22:40 82° NNW 22:25:48 10° ENE
Cosmos 2315 Rocket 4.0 22:16:33 10° N 22:22:48 81° E 22:26:32 26° SSE
STARLINK-1356 2.8 22:19:56 10° WSW 22:23:02 82° NNW 22:26:11 10° ENE
STARLINK-1201 4.3 22:19:12 10° WNW 22:23:03 38° SW 22:23:59 33° S
STARLINK-1345 2.9 22:20:15 10° WSW 22:23:22 82° NNW 22:26:30 10° ENE
STARLINK-1355 2.9 22:20:35 10° WSW 22:23:43 81° NNW 22:26:51 10° ENE
STARLINK-1321 2.9 22:20:56 10° WSW 22:24:03 81° NNW 22:27:11 10° ENE
Cosmos 2227 Rocket 3.1 22:18:38 10° NNW 22:24:05 44° NE 22:28:23 16° ESE
BREEZE-M DEB (TANK) 4.3 22:19:52 10° WSW 22:24:06 81° SSE 22:40:51 10° ENE
STARLINK-1358 2.9 22:21:19 10° WSW 22:24:27 80° NNW 22:27:35 10° ENE
STARLINK-1332 2.9 22:21:36 10° WSW 22:24:44 80° NNW 22:27:52 10° ENE
STARLINK-1348 2.9 22:21:57 10° WSW 22:25:05 80° NNW 22:28:13 10° ENE
STARLINK-1330 2.9 22:22:17 10° WSW 22:25:24 79° NNW 22:28:32 10° ENE
STARLINK-1240 3.6 22:21:18 10° WNW 22:25:28 83° NNE 22:28:23 19° ESE
STARLINK-1363 2.9 22:22:36 10° WSW 22:25:43 79° NNW 22:28:52 10° ENE
STARLINK-1337 2.9 22:22:59 10° WSW 22:26:06 79° NNW 22:29:14 10° ENE
STARLINK-1342 2.9 22:23:18 10° WSW 22:26:26 78° NNW 22:29:33 10° ENE
STARLINK-1364 2.9 22:23:39 10° WSW 22:26:46 78° NNW 22:29:54 10° ENE
STARLINK-1376 2.9 22:23:59 10° WSW 22:27:06 78° NNW 22:30:14 10° ENE
STARLINK-1360 2.9 22:24:19 10° WSW 22:27:27 77° NNW 22:30:35 10° ENE
STARLINK-1361 2.9 22:24:40 10° WSW 22:27:47 77° NNW 22:30:55 10° ENE
STARLINK-1206 4.3 22:24:11 10° WNW 22:27:58 35° SW 22:28:44 32° SSW
Meteor 2-15 Rocket 4.4 22:21:49 10° N 22:28:00 90° ENE 22:31:36 27° S
STARLINK-1367 2.9 22:24:56 10° WSW 22:28:04 77° NNW 22:31:13 10° ENE
STARLINK-1366 2.9 22:25:19 10° WSW 22:28:26 76° NNW 22:31:34 10° ENE
STARLINK-1338 3.4 22:25:25 10° WSW 22:29:23 86° SSE 22:33:22 10° ENE
STARLINK-1216 3.6 22:26:18 10° WNW 22:30:28 87° NNE 22:33:11 21° ESE
STARLINK-1205 4.4 22:29:12 10° WNW 22:32:56 33° SW 22:33:31 31° SSW
Cosmos 1908 3.2 22:31:27 10° NNW 22:35:16 71° W 22:36:36 38° S
STARLINK-1237 3.5 22:31:16 10° WNW 22:35:27 89° SSW 22:37:58 23° ESE
STARLINK-52 4.2 22:32:22 10° W 22:35:28 44° N 22:38:34 10° ENE
Cosmos 1777 Rocket 4.2 22:32:08 10° NNW 22:37:18 59° WSW 22:39:51 29° S
Cosmos 2084 3.7 22:32:51 10° SW 22:37:18 75° NW 22:41:48 10° NE
SL-14 R/B 4.1 22:36:22 31° SE 22:37:20 36° E 22:40:54 10° NNE
STARLINK-1371 3.4 22:33:30 10° WSW 22:37:28 87° NNW 22:41:27 10° ENE
STARLINK-1202 3.5 22:36:17 10° WNW 22:40:26 85° SSW 22:42:45 25° ESE
STARLINK-1341 3.4 22:37:20 10° WSW 22:41:16 84° NNW 22:45:11 10° ENE
KORONAS-FOTON 3.9 22:42:07 35° SSW 22:43:37 73° W 22:47:31 10° N
Terra 3.9 22:41:39 10° SW 22:44:49 17° W 22:48:00 10° NW
STARLINK-1203 3.5 22:40:53 10° WNW 22:45:02 81° SSW 22:47:10 28° ESE
Thor Agena Rocket 3.8 22:40:55 10° N 22:46:11 68° WNW 22:49:40 21° SSW
STARLINK-1374 3.5 22:42:25 10° WSW 22:46:24 80° NNW 22:50:25 10° ENE
Cosmos 1726 3.9 22:44:36 10° NW 22:47:37 23° W 22:49:12 18° SW
Cosmos 1300 3.1 22:44:13 10° N 22:47:59 52° ENE 22:49:12 35° SE
Meteor 2-5 Rocket 3.7 22:46:11 29° S 22:49:10 79° E 22:54:52 10° NNE
STARLINK-1339 3.6 22:46:20 10° WSW 22:50:17 77° NNW 22:54:16 10° ENE
STARLINK-1246 3.5 22:46:14 10° WNW 22:50:23 76° SSW 22:52:19 30° SE
USA 215 3.6 22:44:46 10° ESE 22:51:15 67° NNE 22:57:45 10° NW
Cosmos 2266 Rocket 4.4 22:47:46 18° SSW 22:52:13 54° WNW 22:58:09 10° N
Cosmos 2292 Rocket 4.2 22:51:50 23° WSW 22:53:06 31° WNW 22:55:50 10° N
STARLINK-1444 4.3 22:51:33 10° WNW 22:53:26 26° N 22:55:23 10° ENE
STARLINK-1452 4.3 22:52:11 10° WNW 22:54:04 26° N 22:55:59 10° ENE
STARLINK-1377 3.6 22:50:36 10° WSW 22:54:33 74° NNW 22:58:31 10° ENE
STARLINK-1392 4.3 22:53:04 10° WNW 22:54:53 25° N 22:56:46 10° ENE
STARLINK-1399 4.3 22:53:06 10° WNW 22:54:56 25° N 22:56:49 10° ENE
STARLINK-1393 4.3 22:53:08 10° WNW 22:54:57 25° N 22:56:50 10° ENE
STARLINK-1394 4.3 22:53:09 10° WNW 22:54:58 25° N 22:56:52 10° ENE
STARLINK-1395 4.3 22:53:13 10° WNW 22:55:02 25° N 22:56:53 10° ENE
STARLINK-1397 4.3 22:53:11 10° WNW 22:55:02 25° N 22:56:55 10° ENE
STARLINK-1414 4.3 22:53:13 10° WNW 22:55:02 25° N 22:56:55 10° ENE
Cosmos 1674 3.3 22:53:25 28° SW 22:55:02 49° WNW 22:58:46 10° N
STARLINK-1396 4.3 22:53:12 10° WNW 22:55:03 25° N 22:56:55 10° ENE
STARLINK-1408 4.3 22:53:16 10° WNW 22:55:06 25° N 22:56:58 10° ENE
STARLINK-1404 4.3 22:53:17 10° WNW 22:55:07 25° N 22:57:01 10° ENE
STARLINK-1416 4.3 22:53:18 10° WNW 22:55:08 25° N 22:57:00 10° ENE
STARLINK-1415 4.3 22:53:18 10° WNW 22:55:09 25° N 22:57:03 10° ENE
STARLINK-1450 4.3 22:53:20 10° WNW 22:55:11 25° N 22:57:04 10° ENE
STARLINK-1406 4.3 22:53:22 10° WNW 22:55:11 25° N 22:57:04 10° ENE
STARLINK-1401 4.3 22:53:21 10° WNW 22:55:12 25° N 22:57:06 10° ENE
STARLINK-1417 4.3 22:53:25 10° WNW 22:55:16 25° N 22:57:10 10° ENE
STARLINK-1402 4.3 22:53:26 10° WNW 22:55:17 25° N 22:57:11 10° ENE
STARLINK-1413 4.3 22:53:26 10° WNW 22:55:17 25° N 22:57:11 10° ENE
STARLINK-1419 4.3 22:53:27 10° WNW 22:55:17 25° N 22:57:11 10° ENE
STARLINK-1224 3.5 22:51:12 10° WNW 22:55:20 72° SSW 22:57:05 33° SE
STARLINK-1422 4.3 22:53:32 10° WNW 22:55:22 25° N 22:57:17 10° ENE
STARLINK-1453 4.3 22:53:32 10° WNW 22:55:24 25° N 22:57:19 10° ENE
STARLINK-1398 4.3 22:53:33 10° WNW 22:55:25 26° N 22:57:21 10° ENE
STARLINK-1420 4.3 22:53:36 10° WNW 22:55:26 25° N 22:57:21 10° ENE
STARLINK-1440 4.3 22:53:37 10° WNW 22:55:28 25° N 22:57:23 10° ENE
STARLINK-1436 (VISORSAT) 4.3 22:53:37 10° WNW 22:55:29 26° N 22:57:25 10° ENE
STARLINK-1460 4.3 22:53:38 10° WNW 22:55:29 25° N 22:57:24 10° ENE
STARLINK-1410 4.3 22:53:43 10° WNW 22:55:34 25° N 22:57:27 10° ENE
STARLINK-1423 4.3 22:53:44 10° WNW 22:55:34 25° N 22:57:27 10° ENE
STARLINK-1421 4.3 22:53:44 10° WNW 22:55:34 25° N 22:57:27 10° ENE
STARLINK-1400 4.3 22:53:44 10° WNW 22:55:34 25° N 22:57:28 10° ENE
STARLINK-1454 4.3 22:53:45 10° WNW 22:55:35 25° N 22:57:29 10° ENE
STARLINK-1458 4.3 22:53:47 10° WNW 22:55:38 25° N 22:57:31 10° ENE
STARLINK-1445 4.3 22:53:49 10° WNW 22:55:40 25° N 22:57:35 10° ENE
STARLINK-1407 4.3 22:53:51 10° WNW 22:55:42 25° N 22:57:37 10° ENE
STARLINK-1446 4.3 22:53:52 10° WNW 22:55:43 25° N 22:57:37 10° ENE
STARLINK-1405 4.3 22:53:55 10° WNW 22:55:43 25° N 22:57:35 10° ENE
STARLINK-1370 4.3 22:53:54 10° WNW 22:55:46 25° N 22:57:39 10° ENE
STARLINK-1456 4.3 22:53:56 10° WNW 22:55:47 25° N 22:57:40 10° ENE
STARLINK-1457 4.3 22:53:56 10° WNW 22:55:47 25° N 22:57:40 10° ENE
STARLINK-1451 4.3 22:53:56 10° WNW 22:55:47 25° N 22:57:40 10° ENE
STARLINK-1439 4.3 22:53:59 10° WNW 22:55:47 25° N 22:57:38 10° ENE
STARLINK-1409 4.3 22:53:57 10° WNW 22:55:47 25° N 22:57:41 10° ENE
STARLINK-1447 4.3 22:53:57 10° WNW 22:55:48 25° N 22:57:42 10° ENE
STARLINK-1455 4.3 22:53:57 10° WNW 22:55:48 25° N 22:57:42 10° ENE
STARLINK-1437 4.3 22:53:58 10° WNW 22:55:48 25° N 22:57:42 10° ENE
STARLINK-1441 4.3 22:53:59 10° WNW 22:55:50 25° N 22:57:44 10° ENE
STARLINK-1443 4.3 22:54:01 10° WNW 22:55:53 26° N 22:57:48 10° ENE
STARLINK-1351 4.3 22:54:04 10° WNW 22:55:54 25° N 22:57:49 10° ENE
STARLINK-1418 4.3 22:54:04 10° WNW 22:55:54 25° N 22:57:49 10° ENE
STARLINK-1403 4.3 22:54:04 10° WNW 22:55:55 26° N 22:57:50 10° ENE
STARLINK-1434 4.3 22:54:04 10° WNW 22:55:55 26° N 22:57:50 10° ENE
STARLINK-1442 4.3 22:54:05 10° WNW 22:55:56 25° N 22:57:50 10° ENE
STARLINK-1448 4.3 22:54:07 10° WNW 22:55:58 25° N 22:57:52 10° ENE
STARLINK-1433 4.3 22:54:08 10° WNW 22:55:58 25° N 22:57:53 10° ENE
STARLINK-1449 4.3 22:54:09 10° WNW 22:56:00 25° N 22:57:55 10° ENE
STARLINK-1438 4.3 22:54:13 10° WNW 22:56:03 25° N 22:57:56 10° ENE
STARLINK-1411 4.3 22:54:20 10° WNW 22:56:10 25° N 22:58:05 10° ENE
STARLINK-1412 4.3 22:54:19 10° WNW 22:56:11 25° N 22:58:05 10° ENE
STARLINK-1353 3.7 22:55:25 10° WSW 22:59:23 71° NNW 23:03:23 10° ENE
STARLINK-1225 3.5 22:56:12 10° WNW 23:00:19 68° SSW 23:01:53 36° SE
ATLAS 3B R/B 3.8 22:56:30 10° WNW 23:02:13 29° WSW 23:05:21 21° SSW
FALCON 9 DEB 4.2 22:59:37 10° W 23:02:57 46° N 23:06:18 10° ENE
STARLINK-1375 3.8 22:59:18 10° WSW 23:03:15 68° NNW 23:07:13 10° ENE
STARLINK-60 4.3 23:00:45 10° WNW 23:03:47 40° N 23:06:49 10° ENE
SeaSat 1 2.4 23:00:01 10° NNE 23:04:59 82° ESE 23:07:35 29° SSW
STARLINK-1230 3.6 23:01:10 10° WNW 23:05:17 63° SSW 23:06:38 39° SE
Cosmos 1606 Rocket 4.4 23:02:39 10° NNW 23:06:43 39° W 23:08:26 27° SW
STARLINK-1350 3.8 23:03:40 10° W 23:07:37 66° NNW 23:11:34 10° ENE
BREEZE M DEB (TANK) 3.4 23:05:39 10° W 23:06:46 24° W 23:06:46 24° W
Cosmos 2058 Rocket 3.1 23:03:43 10° NNW 23:08:12 74° W 23:09:53 37° S
Meteor 2-21 4.4 23:04:49 28° S 23:08:17 89° E 23:14:32 10° N
STARLINK-1243 3.6 23:06:10 10° WNW 23:10:16 59° SSW 23:11:27 41° SSE
Cosmos 1980 Rocket 3.9 23:10:05 15° SE 23:12:03 18° E 23:15:48 10° ENE
STARLINK-1352 3.9 23:08:31 10° W 23:12:30 64° NNW 23:16:29 10° ENE
Helios 1B rocket 4.0 23:09:35 10° NE 23:12:56 23° E 23:14:04 21° ESE
STARLINK-1236 3.7 23:11:09 10° WNW 23:15:13 55° SSW 23:16:12 43° SSE
Cosmos 1244 Rocket 4.4 23:12:34 28° SSW 23:16:02 85° W 23:22:14 10° N
ALOS 2 2.9 23:14:35 35° SSW 23:16:09 54° W 23:20:28 10° NNW
STARLINK-1368 4.0 23:12:28 10° W 23:16:25 61° NNW 23:20:22 10° ENE
COSMOS 2455 4.3 23:11:25 10° WSW 23:16:55 36° NW 23:22:29 10° NNE
Cosmos 1745 Rocket 4.2 23:16:47 28° SSE 23:19:57 57° E 23:25:57 10° NNE
STARLINK-1369 4.0 23:16:42 10° W 23:20:37 60° NNW 23:24:32 10° ENE
ERBS 2.1 23:18:13 10° NW 23:21:34 88° SSW 23:22:16 53° SE
Cosmos 1626 2.3 23:20:51 41° SW 23:21:56 64° WNW 23:25:39 10° N
RESURS DK-1 4.1 23:18:46 10° WSW 23:22:24 29° NW 23:26:05 10° NNE
Cosmos 1455 3.7 23:20:16 10° N 23:23:34 28° ENE 23:25:11 20° ESE
Cosmos 1937 Rocket 3.9 23:18:29 10° NNW 23:23:42 58° ENE 23:27:01 22° SE
STARLINK-1372 4.1 23:21:10 10° W 23:25:05 58° NNW 23:29:01 10° ENE
Cosmos 1812 Rocket 4.1 23:20:46 10° N 23:25:08 52° ENE 23:27:04 29° SE
STARLINK-1269 3.8 23:21:09 10° WNW 23:25:09 48° SW 23:25:46 44° S
Cosmos 2263 Rocket 4.2 23:21:19 10° NNW 23:25:54 25° NE 23:30:25 10° E
STARLINK-43 3.5 23:26:08 47° SE 23:26:08 47° SE 23:29:40 10° ENE
Lacrosse 4 Rocket 1.4 23:24:54 10° NNW 23:29:14 81° ENE 23:31:03 33° SE
STARLINK-1378 4.2 23:25:51 10° W 23:29:47 56° NNW 23:33:43 10° ENE
Meteor 1-24 Rocket 3.8 23:27:06 28° SSW 23:30:01 66° WNW 23:35:36 10° N
STARLINK-1200 3.9 23:26:08 10° WNW 23:30:06 45° SW 23:30:32 43° SSW
Cosmos 2297 Rocket 2.3 23:24:53 10° NW 23:30:27 60° WSW 23:32:58 32° S
Cosmos 1656 3.6 23:27:54 31° SSW 23:30:44 76° ESE 23:36:20 10° NNE
Cosmos 921 Rocket 3.9 23:29:32 22° SW 23:31:57 43° WNW 23:36:11 10° N
Cosmos 1898 Rocket 3.5 23:27:09 10° NNW 23:32:31 89° ENE 23:35:13 30° SSE
SL-4 R/B 3.4 23:33:28 13° WNW 23:33:28 13° WNW 23:33:59 10° WNW
CZ-4C R/B 2.2 23:31:34 33° S 23:33:45 59° SE 23:39:38 10° NE
STARLINK-1379 4.2 23:30:06 10° W 23:34:01 55° NNW 23:37:56 10° ENE
Cosmos 2219 3.7 23:28:54 10° NW 23:34:18 46° WSW 23:36:34 30° SSW
SL-4 R/B 2.7 23:29:46 10° WNW 23:34:37 68° N 23:39:24 10° E
STARLINK-1192 4.0 23:31:09 10° WNW 23:35:05 42° SW 23:35:20 41° SSW
STARLINK-29 4.4 23:33:27 10° WNW 23:36:31 40° N 23:39:34 10° ENE
Cosmos 1602 Rocket 3.7 23:35:23 37° SSE 23:36:52 61° E 23:41:09 10° NNE
STARLINK-28 4.4 23:39:11 25° ESE 23:39:11 25° ESE 23:41:00 10° ENE
STARLINK-1329 4.3 23:34:32 10° W 23:38:29 54° NNW 23:42:28 10° ENE
STARLINK-1244 4.1 23:36:08 10° WNW 23:40:00 39° SW 23:40:06 39° SW
Cosmos 990 Rocket 4.0 23:36:55 10° NNW 23:42:11 75° WSW 23:44:36 32° S
STARLINK-1362 4.3 23:38:22 10° W 23:42:17 53° N 23:46:13 10° ENE
PSLV R/B 4.1 23:38:04 10° NNE 23:42:21 47° E 23:43:52 33° SSE
Cosmos 1386 Rocket 4.5 23:39:47 30° S 23:43:04 77° E 23:49:21 10° NNE
ATLAS CENTAUR R/B 1.6 23:41:37 10° WNW 23:43:35 47° WSW 23:43:35 47° WSW
STARLINK-1138 4.2 23:41:08 10° WNW 23:44:52 36° SW 23:44:52 36° SW
Cosmos 2082 3.6 23:39:19 10° NNW 23:44:59 86° WSW 23:48:10 27° SSE
Cosmos 192 4.5 23:43:01 29° SW 23:45:32 72° WNW 23:50:32 10° NNE
STARLINK-1373 4.4 23:43:09 10° W 23:47:04 51° N 23:50:59 10° ENE
STARLINK-33 4.3 23:49:37 26° ESE 23:49:37 26° ESE 23:51:28 10° ENE
Helios 1A 3.6 23:47:33 34° SW 23:48:46 44° W 23:52:47 10° NNW
STARLINK-1143 4.4 23:46:09 10° WNW 23:49:40 33° SW 23:49:40 33° SW
STARLINK-26 3.8 23:51:17 37° SE 23:51:17 37° SE 23:54:05 10° ENE
Cosmos 858 Rocket 4.5 23:45:46 10° NNW 23:51:05 87° WSW 23:53:52 29° SSE
STARLINK-1320 4.3 23:48:19 10° WNW 23:51:17 39° N 23:54:16 10° ENE
EO 1 Delta rocket 4.1 23:46:20 10° N 23:51:36 65° WNW 23:53:51 30° SSW
STARLINK-1322 4.3 23:48:41 10° WNW 23:51:39 39° N 23:54:37 10° ENE
STARLINK-1390 4.4 23:47:46 10° W 23:51:41 51° N 23:55:36 10° ENE
STARLINK-1324 4.3 23:49:00 10° WNW 23:51:58 39° N 23:54:56 10° ENE
STARLINK-1294 4.3 23:49:18 10° WNW 23:52:17 39° N 23:55:16 10° ENE
STARLINK-1261 4.3 23:49:41 10° WNW 23:52:40 39° N 23:55:38 10° ENE
Meteor 2-1 Rocket 4.2 23:47:11 10° NNW 23:52:45 81° W 23:55:37 30° S
STARLINK-1325 4.3 23:50:03 10° WNW 23:53:01 39° N 23:55:59 10° ENE
ATLAS CENTAUR R/B 4.4 23:51:07 10° NW 23:53:13 14° NNW 23:55:15 10° N
STARLINK-1333 4.4 23:50:25 10° WNW 23:53:23 39° N 23:56:21 10° ENE
STARLINK-1334 4.4 23:50:43 10° WNW 23:53:40 39° N 23:56:38 10° ENE
STARLINK-1326 4.4 23:51:02 10° WNW 23:53:59 39° N 23:56:57 10° ENE
STARLINK-1323 4.4 23:51:25 10° WNW 23:54:22 39° N 23:57:21 10° ENE
STARLINK-1349 4.4 23:51:42 10° WNW 23:54:40 39° N 23:57:38 10° ENE
STARLINK-1336 4.4 23:52:02 10° WNW 23:55:00 38° N 23:57:58 10° ENE
STARLINK-1331 4.4 23:52:25 10° WNW 23:55:23 38° N 23:58:21 10° ENE
STARLINK-1344 4.4 23:52:43 10° WNW 23:55:41 38° N 23:58:39 10° ENE
STARLINK-1343 4.4 23:53:06 10° WNW 23:56:04 38° N 23:59:02 10° ENE
Cosmos 1437 4.2 23:55:39 23° W 23:56:18 25° WNW 23:58:53 10° NNW
STARLINK-1346 4.4 23:53:22 10° WNW 23:56:22 39° N 23:59:22 10° ENE
STARLINK-1328 4.4 23:53:49 10° WNW 23:56:47 38° N 23:59:45 10° ENE
